INMARSAT 5-F3

导读

INMARSAT 5-F3是国际海事卫星组织(Inmarsat)所属的第五代海事通信卫星,于2015年8月28日发射升空。作为全球卫星宽带通信网络的重要组成部分,它主要为海事、航空及陆地上的用户提供高速宽带通信服务,覆盖全球主要海域与航线,增强了海上航行安全保障和应急通信能力,推动了全球移动宽带通信服务的发展。

Basic Information
目录编号:
40882
目录名称:
INMARSAT 5-F3
国际标识:
2015-042A
轨道中心:
EARTH
卫星名称:
INMARSAT 5-F3
卫星全名:
--
卫星状态:
在轨 (已飞行4033 天)
发射日期:
2015-08-28 UTC
国别 :
(Inmarsat)
星等 :
--
This satellite is enrolled in the Space Conjunction Data Service (SCDS) and the current flight risk assessment level is: No High Risk
Orbit Information
数据来源 国际轨道数据 AOE轨道数据
星历时间 2026-09-12T02:13:44+0800
8小时前
查看轨道信息
2026-09-07T00:00:00+0800
5天前
查看轨道信息
半长轴 42164.924km 42164.728km
偏心率 0.0001104 0.0000534
轨道倾角 0.021° 0.019°
近地点辐角 234.859° 222.035°
升交点赤经 133.513° 127.934°
平近点角 75.379° 55.326°
近地点 35782.131km 35784.339km
远地点 35791.443km 35788.843km
周期 1436.107分钟 1436.097分钟
每日圈数 1.002711 1.002718
Detailed Information
使用方式:
暂无
2D Orbit Map
3D Orbit Map
Orbit Altitude Analysis Chart
Orbit Inclination Analysis Chart
Orbit Comprehensive Analysis Chart
View Comprehensive Chart
Miss Distance Evolution Trend with All Objects
Collision Probability Evolution Trend with All Objects